Location: Cave
(41.8160°N, 12.9350°E)
Time: 02:53:47
(UTC+02:00)

ISS - Pass Details

Date: 11 July 2019
Orbit: 409 x 418 km, 51.6° (Epoch: 20 July)

Event Time Altitude Azimuth Distance (km) Brightness Sun altitude
Exits shadow 02:27:08 23° 321° (NW) 933 -1.7 -23.8°
Maximum altitude 02:27:45 24° 340° (NNW) 896 -1.6 -23.8°
Drops below altitude 10° 02:30:33 10° 37° (NE) 1,481 0.0 -23.6°
Enters shadow 03:30:15 -63° 256° (WSW) 11,871 3.6 -18.7°
Sets 04:10:05 0° 63° (ENE) 2,339 1.4 -14.1°
